Weather Roundup
Issued by NWS

Home | Current Version | Previous Version | Graphics & Text | Print | Product List | Glossary Off
Versions: 1 2 3 4 5 6 7 8 9 10 11 12 13 14 15 16 17 18 19 20 21 22 23 24 25 26 27 28 29 30 31 32 33 34 35 36 37 38 39 40 41 42 43 44 45 46 47 48 49 50

000
NZUS93 KARX 020459
HRRWXR

CURRENT HOURLY OBSERVATIONS ACROSS
MUCH OF THE UPPER MISSISSIPPI VALLEY
NATIONAL WEATHER SERVICE LA CROSSE WI
1200 AM CDT WED SEP 02 2015


...SOUTHEAST MINNESOTA...


CITY           SKY/WX    TMP DP  RH WIND       PRES   REMARKS
ROCHESTER      PTCLDY    72  70  93 S9        29.98R FOG
ROCHESTER/MAYO MOCLDY    75  72  89 S8        29.97S
WINONA         PTCLDY    77  72  83 CALM      29.95S
AUSTIN         PTCLDY    75  72  88 S5        29.97S
ALBERT LEA     PTCLDY    75  72  88 S7        29.96S
DODGE CENTER   PTCLDY    75  72  88 S10       29.97S
PRESTON        CLEAR     74  70  89 SW5       29.99S
OWATONNA       PTCLDY    73  70  88 S6        29.95F
FARIBAULT      PTCLDY    72  70  94 CALM      29.95S
$$

...ELSEWHERE IN MINNESOTA...


CITY           SKY/WX    TMP DP  RH WIND       PRES   REMARKS
MINNEAPOLIS    CLOUDY    77  72  84 S5        29.92F
INTNL FALLS    CLEAR     53  52  96 CALM      29.93S
DULUTH         PTCLDY    68  66  93 CALM      29.95F
RED WING       CLEAR     72  70  94 SE3       29.93S FOG
REDWOOD FALLS  TSTM      72  65  78 SE12G25   29.89S
MANKATO        MOCLDY    73  70  88 SE3       29.94S
WORTHINGTON    CLOUDY    73  70  88 SW7       29.90S
FAIRMONT       PTCLDY    73  66  78 S10       29.91F
$$

...SOUTHWEST WISCONSIN...


CITY           SKY/WX    TMP DP  RH WIND       PRES   REMARKS
LA CROSSE      PTCLDY    77  73  87 SE6       29.95S
PRAIRIE DU CHI CLEAR     77  71  81 CALM      29.99S
BOSCOBEL       PTCLDY    73  71  93 CALM      29.99R FOG
LONE ROCK      NOT AVBL
PLATTEVILLE    PTCLDY    73  71  94 S7        30.02S
FORT MC COY    MOCLDY    73  70  91 CALM      29.98R
CAMP DOUGLAS   FOG       69  69 100 E2        29.97S VSB 1
VIROQUA          N/A     74  74 100 SW6       30.00S
WIS DELLS      PTCLDY    76  71  85 SW6       29.99S
$$

...ELSEWHERE IN WISCONSIN...


CITY           SKY/WX    TMP DP  RH WIND       PRES   REMARKS
MILWAUKEE      MOCLDY    78  70  76 SW10      30.01R
MADISON        PTCLDY    77  71  82 SW5       29.99S
GREEN BAY      MOCLDY    74  71  91 S3        29.97S
EAU CLAIRE     MOCLDY    73  71  93 CALM      29.94S
BLACK RVR FLS  FOG       69  69 100 CALM      29.96S VSB<1/4
MEDFORD        MOCLDY    69  69 100 S3        29.99S FOG
WAUSAU         FAIR      72  70  93 E5        29.97S FOG
WIS RAPIDS     PTCLDY    74  70  87 CALM      30.00R
MARSHFIELD     MOCLDY    73  69  87 S3        29.99R FOG
RICE LAKE      CLOUDY    72  70  94 CALM      29.96S FOG
$$

...NORTHEAST IOWA...


CITY           SKY/WX    TMP DP  RH WIND       PRES   REMARKS
DECORAH        CLEAR     75  73  94 S7        29.98F
MASON CITY     PTCLDY    73  71  93 S7        29.98R
CHARLES CITY   MOCLDY    73  73 100 SE8       29.99S
OELWEIN          N/A     72  70  94 S7        30.01S
$$

...ELSEWHERE IN IOWA...


CITY           SKY/WX    TMP DP  RH WIND       PRES   REMARKS
DES MOINES     MOCLDY    76  67  73 S9        29.98S
IOWA CITY      CLEAR     73  70  90 SE3       30.02S
FORT DODGE     PTCLDY    77  66  69 S12       29.96S
$$

...NORTHERN ILLINOIS...


CITY           SKY/WX    TMP DP  RH WIND       PRES   REMARKS
CHICAGO-OHARE  PTCLDY    78  72  81 SW9       30.03S
CHICAGO-MIDWAY PTCLDY    79  70  74 SW10      30.04R
MOLINE         PTCLDY    77  68  73 S5        30.02S
ROCKFORD       MOCLDY    73  69  87 CALM      30.04S
PEORIA         CLEAR     77  68  73 S3        30.06S
$$

NOTE: "FAIR" INDICATES FEW OR NO CLOUDS BELOW 12,000 FEET WITH NO
SIGNIFICANT WEATHER AND/OR OBSTRUCTIONS TO VISIBILITY. WIND
SPEEDS ARE IN MILES-PER-HOUR.



USA.gov is the U.S. government's official web portal to all federal, state and local government web resources and services.